TimeCEST,TemperatureF,Dew PointF,Humidity,Sea Level PressureIn,VisibilityMPH,Wind Direction,Wind SpeedMPH,Gust SpeedMPH,PrecipitationIn,Events,Conditions,WindDirDegrees,DateUTC
12:00 AM,55.4,42.8,63,30.04,-9999.0,West,13.8,-,N/A,,Clear,280,2012-10-04 22:00:00
12:30 AM,53.6,41.0,62,30.04,-9999.0,West,12.7,-,N/A,,Clear,280,2012-10-04 22:30:00
1:00 AM,51.8,41.0,67,30.06,-9999.0,West,11.5,-,N/A,,Clear,270,2012-10-04 23:00:00
1:30 AM,50.0,41.0,71,30.09,-9999.0,West,9.2,-,N/A,,Clear,270,2012-10-04 23:30:00
2:00 AM,48,42,71,30.12,19,West,8.9,,,,Partly Cloudy,260,2012-10-05 00:00:00
2:00 AM,48.2,41.0,76,30.09,6.2,West,10.4,-,N/A,,Partly Cloudy,260,2012-10-05 00:00:00
2:30 AM,48.2,41.0,76,30.09,-9999.0,SW,5.8,-,N/A,,Clear,230,2012-10-05 00:30:00
3:00 AM,46.4,41.0,81,30.09,-9999.0,SSW,5.8,-,N/A,,Clear,210,2012-10-05 01:00:00
3:30 AM,46.4,41.0,81,30.12,-9999.0,Variable,2.3,-,N/A,,Clear,0,2012-10-05 01:30:00
4:00 AM,46.4,41.0,81,30.12,-9999.0,Variable,2.3,-,N/A,,Clear,0,2012-10-05 02:00:00
4:30 AM,46.4,41.0,81,30.12,-9999.0,West,4.6,-,N/A,,Clear,260,2012-10-05 02:30:00
5:00 AM,44.6,41.0,87,30.12,-9999.0,WSW,3.5,-,N/A,,Clear,240,2012-10-05 03:00:00
5:30 AM,46.4,41.0,81,30.12,-9999.0,Variable,1.2,-,N/A,,Clear,0,2012-10-05 03:30:00
6:00 AM,46.4,41.0,81,30.12,-9999.0,Variable,2.3,-,N/A,,Clear,0,2012-10-05 04:00:00
6:30 AM,44.6,41.0,87,30.12,-9999.0,WNW,3.5,-,N/A,,Clear,300,2012-10-05 04:30:00
7:00 AM,44.6,39.2,81,30.12,-9999.0,Variable,2.3,-,N/A,,Clear,0,2012-10-05 05:00:00
7:30 AM,44.6,41.0,87,30.12,-9999.0,NNE,5.8,-,N/A,,Clear,30,2012-10-05 05:30:00
8:00 AM,44,40,82,30.15,25,WNW,6.7,,,,Scattered Clouds,300,2012-10-05 06:00:00
8:00 AM,44.6,41.0,87,30.12,-9999.0,NNW,3.5,-,N/A,,Clear,340,2012-10-05 06:00:00
8:30 AM,44.6,41.0,87,30.12,-9999.0,WNW,8.1,-,N/A,,Clear,290,2012-10-05 06:30:00
9:00 AM,46.4,41.0,81,30.12,-9999.0,Variable,2.3,-,N/A,,Clear,0,2012-10-05 07:00:00
9:30 AM,46.4,42.8,87,30.15,-9999.0,South,8.1,-,N/A,,Clear,170,2012-10-05 07:30:00
10:00 AM,50.0,42.8,76,30.15,-9999.0,South,8.1,-,N/A,,Clear,170,2012-10-05 08:00:00
10:30 AM,50.0,41.0,71,30.15,-9999.0,South,5.8,-,N/A,,Clear,170,2012-10-05 08:30:00
11:00 AM,51.8,42.8,71,30.12,-9999.0,SSE,5.8,-,N/A,,Clear,150,2012-10-05 09:00:00
11:30 AM,53.6,42.8,67,30.12,-9999.0,SE,6.9,-,N/A,,Clear,130,2012-10-05 09:30:00
12:00 PM,55.4,42.8,63,30.12,-9999.0,South,6.9,-,N/A,,Clear,170,2012-10-05 10:00:00
12:30 PM,57.2,44.6,63,30.09,-9999.0,South,9.2,-,N/A,,Clear,170,2012-10-05 10:30:00
1:00 PM,59.0,42.8,55,30.09,-9999.0,South,8.1,-,N/A,,Clear,180,2012-10-05 11:00:00
1:30 PM,60.8,42.8,52,30.09,-9999.0,South,9.2,-,N/A,,Clear,180,2012-10-05 11:30:00
2:00 PM,62,43,38,30.08,31,SSW,13.4,,,,Partly Cloudy,200,2012-10-05 12:00:00
2:00 PM,62.6,44.6,52,30.06,-9999.0,South,13.8,-,N/A,,Clear,190,2012-10-05 12:00:00
2:30 PM,62.6,44.6,52,30.06,-9999.0,South,11.5,-,N/A,,Clear,180,2012-10-05 12:30:00
3:00 PM,64.4,44.6,49,30.04,-9999.0,South,10.4,-,N/A,,Clear,170,2012-10-05 13:00:00
3:30 PM,64.4,42.8,45,30.04,-9999.0,South,11.5,-,N/A,,Clear,190,2012-10-05 13:30:00
4:00 PM,66.2,44.6,46,30.01,-9999.0,South,11.5,-,N/A,,Clear,180,2012-10-05 14:00:00
4:30 PM,66.2,46.4,49,30.01,-9999.0,South,12.7,-,N/A,,Clear,180,2012-10-05 14:30:00
5:00 PM,64.4,48.2,56,30.01,-9999.0,South,11.5,-,N/A,,Clear,180,2012-10-05 15:00:00
5:30 PM,64.4,48.2,56,30.01,-9999.0,South,10.4,-,N/A,,Clear,170,2012-10-05 15:30:00
6:00 PM,62.6,48.2,59,29.98,-9999.0,South,11.5,-,N/A,,Clear,180,2012-10-05 16:00:00
6:30 PM,60.8,48.2,63,30.01,-9999.0,South,8.1,-,N/A,,Clear,190,2012-10-05 16:30:00
7:00 PM,60.8,48.2,63,30.01,-9999.0,South,5.8,-,N/A,,Clear,180,2012-10-05 17:00:00
7:30 PM,59.0,50.0,72,29.98,-9999.0,South,5.8,-,N/A,,Clear,170,2012-10-05 17:30:00
8:00 PM,58,50,66,30.00,28,SSE,2.2,,,,Scattered Clouds,160,2012-10-05 18:00:00
8:00 PM,59.0,48.2,67,29.98,-9999.0,South,3.5,-,N/A,,Clear,170,2012-10-05 18:00:00
8:30 PM,59.0,50.0,72,30.01,-9999.0,Variable,1.2,-,N/A,,Clear,0,2012-10-05 18:30:00
9:00 PM,59.0,50.0,72,30.01,-9999.0,South,3.5,-,N/A,,Clear,170,2012-10-05 19:00:00
9:30 PM,59.0,50.0,72,30.01,-9999.0,Variable,1.2,-,N/A,,Clear,0,2012-10-05 19:30:00
10:00 PM,57.2,50.0,77,30.01,-9999.0,SSE,3.5,-,N/A,,Clear,160,2012-10-05 20:00:00
10:30 PM,57.2,50.0,77,30.01,-9999.0,Variable,2.3,-,N/A,,Clear,0,2012-10-05 20:30:00
11:00 PM,57.2,50.0,77,30.01,-9999.0,Calm,Calm,-,N/A,,Clear,0,2012-10-05 21:00:00
11:30 PM,57.2,50.0,77,30.01,-9999.0,NE,3.5,-,N/A,,Clear,40,2012-10-05 21:30:00